{"data":{"norad_id":40959,"epoch":"2026-05-25T04:45:32.486688Z","epoch_age_seconds":60976,"freshness":"FRESH","line1":"1 40959U 15057B   26145.19829267  .00000438  00000+0  68386-4 0  9996","line2":"2 40959  97.6622 141.1364 0016608 349.8034  10.2838 14.77354101572013","mean_motion":14.77354101,"eccentricity":0.0016608,"inclination_deg":97.6622,"raan_deg":141.1364,"arg_perigee_deg":349.8034,"mean_anomaly_deg":10.2838,"bstar":6.8386e-5,"rev_number":57201,"period_min":97.471553977837,"perigee_km":626.03653161919,"apogee_km":649.34029731589,"semimajor_km":7015.8254144675,"source":"CELESTRAK","updated_at":"2026-05-25T13:37:55.555837Z"}}